DW2182 Weather Reports


time (UTC)temp
C
wind
direction
speed
KPH
gust
KPH
rain 1hr
cm
rain 24hr
cm
rain mn
cm
humidity
%
barometer
mb
20260502223516 20 113 12.9 27.4 0.00 0.00 0.00 29 1011.9
20260502222517 21 113 12.9 24.1 0.00 0.00 0.00 29 1012.0
20260502221517 21 113 8.0 16.1 0.00 0.00 0.00 29 1012.1
20260502220537 21 113 11.3 17.7 0.00 0.00 0.00 28 1012.2
20260502215537 21 113 8.0 16.1 0.00 0.00 0.00 28 1012.3
20260502214536 21 113 6.4 14.5 0.00 0.00 0.00 29 1012.4
20260502213516 21 135 11.3 16.1 0.00 0.00 0.00 29 1012.6
20260502212516 21 113 9.7 19.3 0.00 0.00 0.00 29 1012.7
20260502211517 21 113 9.7 17.7 0.00 0.00 0.00 28 1012.9
20260502210516 21 113 8.0 19.3 0.00 0.00 0.00 28 1013.2
20260502205516 21 113 9.7 19.3 0.00 0.00 0.00 29 1013.3
20260502204516 21 113 14.5 27.4 0.00 0.00 0.00 29 1013.7
20260502203536 21 113 8.0 17.7 0.00 0.00 0.00 28 1013.9
20260502202516 21 113 8.0 19.3 0.00 0.00 0.00 30 1014.1
20260502201516 21 113 11.3 20.9 0.00 0.00 0.00 29 1014.2
20260502200516 21 113 12.9 22.5 0.00 0.00 0.00 30 1014.5
20260502195516 21 113 6.4 14.5 0.00 0.00 0.00 28 1014.7
20260502194636 20 113 9.7 22.5 0.00 0.00 0.00 28 1014.8
20260502193516 20 135 6.4 12.9 0.00 0.00 0.00 30 1015.1
20260502192516 20 113 9.7 16.1 0.00 0.00 0.00 29 1015.2
20260502191516 20 113 12.9 20.9 0.00 0.00 0.00 29 1015.5
20260502190536 20 135 6.4 17.7 0.00 0.00 0.00 29 1015.6
20260502185536 20 135 6.4 12.9 0.00 0.00 0.00 29 1015.8
20260502184516 19 113 14.5 32.2 0.00 0.00 0.00 29 1015.8
20260502183516 19 113 11.3 24.1 0.00 0.00 0.00 29 1016.1
20260502182516 19 113 9.7 20.9 0.00 0.00 0.00 28 1016.2
20260502181516 19 113 11.3 20.9 0.00 0.00 0.00 30 1016.5
20260502180516 18 113 8.0 14.5 0.00 0.00 0.00 29 1016.6
20260502170516 17 135 6.4 12.9 0.00 0.00 0.00 30 1017.6
20260502163516 17 113 9.7 19.3 0.00 0.00 0.00 32 1018.1
20260502162516 16 113 9.7 20.9 0.00 0.00 0.00 33 1018.2
20260502161516 16 135 9.7 19.3 0.00 0.00 0.00 34 1018.3
20260502160516 16 113 11.3 22.5 0.00 0.00 0.00 34 1018.3
20260502151515 13 113 8.0 16.1 0.00 0.00 0.00 43 1018.8
20260502150515 12 113 11.3 17.7 0.00 0.00 0.00 42 1018.7
20260502130517 6 113 4.8 6.4 0.00 0.00 0.00 66 1019.4
20260502123518 4 113 3.2 6.4 0.00 0.00 0.00 70 1019.3
20260502122517 4 113 3.2 4.8 0.00 0.00 0.00 71 1019.2
20260502121517 3 113 3.2 4.8 0.00 0.00 0.00 73 1019.2
20260502120517 3 113 3.2 4.8 0.00 0.00 0.00 75 1019.2
20260502115517 2 113 3.2 4.8 0.00 0.00 0.00 76 1019.2
20260502114557 2 113 3.2 4.8 0.00 0.00 0.00 77 1019.1
20260502113518 2 113 3.2 4.8 0.00 0.03 0.00 77 1019.1
20260502112518 2 135 3.2 6.4 0.00 0.03 0.00 77 1018.9
20260502111515 1 0.0 0.0 0.00 0.03 0.00 78 1018.9
20260502110537 1 0.0 0.0 0.00 0.03 0.00 78 1019.0
20260502105517 1 0.0 0.0 0.00 0.03 0.00 79 1019.1
20260502104517 1 0.0 0.0 0.00 0.03 0.00 79 1019.1
20260502103518 1 0.0 0.0 0.00 0.03 0.00 79 1019.2
20260502102517 1 0.0 0.0 0.00 0.03 0.00 79 1019.2
20260502101517 1 0.0 0.0 0.00 0.03 0.00 78 1019.2
20260502100517 1 0.0 0.0 0.00 0.03 0.00 77 1019.0
20260502091518 2 0.0 0.0 0.00 0.03 0.00 76 1019.1
20260502090518 2 0.0 0.0 0.00 0.03 0.00 75 1019.0
20260502071517 2 0.0 0.0 0.00 0.03 0.00 79 1019.2
20260502070517 2 158 1.6 3.2 0.00 0.03 0.00 78 1019.3
20260502065517 2 0.0 0.0 0.00 0.03 0.00 77 1019.2
20260502064517 2 0.0 3.2 0.00 0.03 0.00 77 1019.3
20260502063517 2 0.0 1.6 0.00 0.03 0.00 76 1019.4
20260502062517 2 0.0 0.0 0.00 0.03 0.00 75 1019.5
20260502061517 2 0.0 0.0 0.00 0.03 0.00 75 1019.4
20260502060537 2 0.0 0.0 0.00 0.03 0.00 74 1019.4
20260502055517 3 0.0 0.0 0.00 0.03 0.00 72 1019.4
20260502054517 3 0.0 0.0 0.00 0.03 0.00 72 1019.3
20260502053517 3 0.0 0.0 0.00 0.03 0.00 71 1019.4
20260502052517 3 0.0 0.0 0.00 0.03 0.00 71 1019.3
20260502051517 3 0.0 0.0 0.00 0.03 0.00 71 1019.4
20260502050517 3 0.0 1.6 0.00 0.03 0.00 71 1019.4
20260502045517 3 0.0 0.0 0.00 0.03 0.03 69 1019.3
20260502044517 4 0.0 0.0 0.00 0.03 0.03 68 1019.2
20260502043517 4 0.0 0.0 0.00 0.03 0.03 67 1019.2
20260502042518 4 0.0 1.6 0.00 0.03 0.03 66 1019.2
20260502041517 5 0.0 0.0 0.00 0.03 0.03 65 1019.2
20260502040517 5 0.0 0.0 0.00 0.03 0.03 64 1019.2
20260502035517 5 0.0 0.0 0.00 0.03 0.03 62 1019.3
20260502034537 5 0.0 0.0 0.00 0.03 0.03 62 1019.1
20260502033537 6 0.0 0.0 0.00 0.03 0.03 62 1019.2
20260502032517 6 0.0 0.0 0.00 0.03 0.03 59 1019.3
20260502031517 6 0.0 0.0 0.00 0.03 0.03 58 1019.3
20260502030537 6 0.0 1.6 0.00 0.03 0.03 56 1019.3
20260502025517 7 0.0 1.6 0.00 0.03 0.03 55 1019.2
20260502024517 7 0.0 0.0 0.00 0.03 0.03 55 1019.1
20260502023517 7 0.0 0.0 0.00 0.03 0.03 53 1019.1
20260502022537 8 0.0 0.0 0.00 0.03 0.03 50 1018.9
20260502021517 8 0.0 1.6 0.00 0.03 0.03 47 1018.8
20260502020537 8 0.0 0.0 0.00 0.05 0.03 46 1018.7
20260502015517 9 0.0 1.6 0.00 0.10 0.03 45 1018.7
20260502014517 9 0.0 3.2 0.00 0.10 0.03 43 1018.5
20260502013517 10 158 1.6 4.8 0.00 0.10 0.03 42 1018.4
20260502012537 10 158 1.6 6.4 0.00 0.10 0.03 42 1018.4
20260502011517 10 158 1.6 4.8 0.00 0.10 0.03 42 1018.4
20260502010517 10 158 3.2 8.0 0.00 0.10 0.03 41 1018.3
20260502005517 10 0 3.2 11.3 0.00 0.10 0.03 41 1018.3
20260502004517 11 158 4.8 9.7 0.00 0.10 0.03 40 1018.4
20260502003517 11 158 6.4 12.9 0.00 0.10 0.03 39 1018.2
20260502002517 11 158 8.0 16.1 0.00 0.10 0.03 37 1018.2
20260502001517 11 158 9.7 17.7 0.00 0.10 0.03 38 1018.1
20260502000516 11 158 11.3 20.9 0.00 0.10 0.03 38 1018.1
20260501235517 11 158 6.4 12.9 0.00 0.10 0.03 37 1018.0
20260501234517 11 158 8.0 14.5 0.00 0.10 0.03 36 1018.0
20260501233516 11 135 6.4 14.5 0.00 0.10 0.03 36 1018.0
20260501232516 11 158 8.0 16.1 0.00 0.10 0.03 36 1018.0
20260501231516 12 158 8.0 17.7 0.00 0.10 0.03 36 1018.1
20260501230516 12 158 8.0 17.7 0.00 0.10 0.03 36 1018.0
20260501225517 12 135 8.0 14.5 0.00 0.10 0.03 37 1018.0
20260501224516 12 158 9.7 14.5 0.00 0.10 0.03 36 1018.0